Content
SEND FEEDBACK

Daily
Averages
Monthly
Summary
Australia

COROWA, NEW SOUTH WALES


Home > Oceania > Australia > New South Wales
Elevation: 469 feet     Latitude: 35 59S     Longitude: 146 21E

WEATHER
 
SELECT A DAY
Number of Records: 186,396;   Date Range: 2/21/03 - 10/22/14
 
SHARE

PRINT THIS DATA

[ ← Previous Day ]
WEATHER ALMANAC - JANUARY 23, 2013
[ Next Day → ]
[ °C ]   °F
Weather ElementAverageHighLow
Temperature75.7 °F91.4 °F (6:00 pm)59 °F (6:00 am)
Dewpoint42.9 °F50 °F (11:00 pm)30.2 °F (6:00 pm)
Humidity33.2 %63 % (6:00 am)6 % (6:00 pm)
Barometer29.88 in29.95 in (8:00 am)29.80 in (7:00 pm)
Wind Speed7 mph11.5 mph (3:00 pm)
Weather ElementAverage
Wind DirectionSSW (211 °)

Weather ElementTotal
Precipitation---
Cooling Degree Days10.2 (Base 65)
Growing Degree Days25.2 (Base 50)
Averaged from 31 records on January 23, 2013
WEATHER CONDITIONS BREAKOUT
WIND DIRECTION BREAKOUT
WEATHER BY HOUR - JANUARY 23, 2013
[ °C ]   °F
Local TimeTemperatureDewpointHumidityBarometerVisibilityWind DirectionWind SpeedGust SpeedPrecipitationEventsConditions
12:00 AM68.0 °F46.4 °F46 %29.86 inSW (230°)10.4 mph
1:00 AM66.2 °F46.4 °F49 %29.86 inSW (220°)9.2 mph
2:00 AM66.2 °F46.4 °F49 %29.86 inSSW (210°)10.4 mph
3:00 AM65.0 °F47.0 °F40 %29.86 inSSW (210°)9.2 mph
3:00 AM64.4 °F46.4 °F52 %29.86 inSSW (210°)9.2 mph
4:00 AM62.6 °F46.4 °F55 %29.86 inSSW (210°)8.1 mph
5:00 AM62.6 °F46.4 °F55 %29.89 inSouth (190°)6.9 mph
6:00 AM59.0 °F46.4 °F63 %29.89 inSouth (170°)6.9 mph
6:00 AM59.0 °F47.0 °F53 %29.88 inSouth (180°)6.9 mph
7:00 AM60.8 °F46.4 °F59 %29.92 inSouth (180°)5.8 mph
8:00 AM66.2 °F48.2 °F52 %29.95 inSouth (190°)6.9 mph
9:00 AM71.0 °F48.0 °F32 %29.94 inSouth (180°)6.9 mph
9:00 AM71.6 °F48.2 °F43 %29.95 inSouth (180°)6.9 mph
10:00 AM75.2 °F46.4 °F36 %29.95 inSSE (160°)6.9 mph
11:00 AM78.8 °F46.4 °F32 %29.95 inWSW (240°)3.5 mph
12:00 PM82.4 °F44.6 °F26 %29.92 inESE (120°)4.6 mph
12:00 PM82.0 °F44.0 °F17 %29.92 inESE (120°)4.6 mph
1:00 PM82.4 °F42.8 °F25 %29.92 inWest (260°)4.6 mph
2:00 PM86.0 °F39.2 °F19 %29.89 inNE (40°)6.9 mph
3:00 PM89.0 °F40.0 °F10 %29.86 inWSW (250°)11.5 mph
3:00 PM89.6 °F39.2 °F17 %29.86 inWSW (250°)11.5 mph
4:00 PM89.6 °F37.4 °F16 %29.86 inSSE (160°)8.1 mph
5:00 PM89.6 °F33.8 °F14 %29.83 inWNW (290°)5.8 mph
6:00 PM91.4 °F30.2 °F11 %29.83 inNW (320°)4.6 mph
6:00 PM90.0 °F31.0 °F6 %29.81 inNW (320°)4.6 mph
7:00 PM89.6 °F33.8 °F14 %29.80 inNW (310°)5.8 mph
8:00 PM86.0 °F33.8 °F15 %29.83 inWest (280°)4.6 mph
9:00 PM76.0 °F39.0 °F16 %29.84 inWest (260°)4.6 mph
9:00 PM77.0 °F39.2 °F26 %29.83 inWest (260°)4.6 mph
10:00 PM75.2 °F48.2 °F38 %29.86 inSouth (170°)8.1 mph
11:00 PM73.4 °F50.0 °F44 %29.89 inSouth (170°)9.2 mph
Hourly data recorded from YWGT, located miles away from Corowa, New South Wales







STORIES FROM OUR PARTNERS